Location: Newark
(44.3100°N, 0.7769°W)
Time: 14:16:34
(UTC+00:00)

N. Korean satellite - Visible Passes

Search period start: 12 November 2019 00:00
Search period end: 22 November 2019 00:00
Orbit: 456 x 506 km, 97.2° (Epoch: 12 November)

Date Brightness Start Highest point End Pass type
(mag) Time Alt. Az. Time Alt. Az. Time Alt. Az.
12 Nov 6.7 06:00:21 10° NNE 06:04:06 86° ESE 06:07:47 10° SSW visible
12 Nov 10.0 18:12:09 10° SW 18:14:11 14° W 18:16:14 10° WNW visible
13 Nov 8.1 05:35:09 10° NNE 05:38:41 40° E 05:42:11 10° S visible
13 Nov 8.9 17:45:30 10° SSW 17:48:38 28° W 17:51:49 10° NW visible
14 Nov 9.5 05:10:19 10° NE 05:13:11 20° E 05:16:00 10° SE visible
14 Nov 7.3 17:19:36 10° S 17:23:09 59° W 17:26:47 10° NNW visible
15 Nov 10.3 04:46:48 10° ENE 04:47:35 10° E 04:48:21 10° E visible
15 Nov 6.7 06:17:39 10° N 06:21:20 57° WNW 06:24:56 10° SSW visible
16 Nov 7.0 05:52:16 10° NNE 05:55:58 68° E 05:59:38 10° S visible
16 Nov 9.7 18:03:26 10° SW 18:05:59 18° W 18:08:33 10° NW visible
17 Nov 8.6 05:27:09 10° NNE 05:30:32 32° E 05:33:52 10° SSE visible
17 Nov 8.5 17:37:06 10° SSW 17:40:26 35° W 17:43:51 10° NNW visible
18 Nov 9.8 05:02:32 10° NE 05:04:59 17° E 05:07:25 10° SE visible
18 Nov 6.9 17:11:22 10° S 17:14:59 76° WSW 17:18:42 10° NNW visible
19 Nov 6.5 06:09:29 10° N 06:13:12 72° WNW 06:16:51 10° SSW visible
19 Nov 10.2 18:22:06 10° WSW 18:23:21 11° W 18:24:37 10° WNW visible
20 Nov 7.5 05:44:09 10° NNE 05:47:48 53° E 05:51:23 10° S visible
20 Nov 9.4 17:54:50 10° SSW 17:57:45 22° W 18:00:41 10° NW visible
21 Nov 9.0 05:19:10 10° NE 05:22:18 26° E 05:25:25 10° SSE visible
21 Nov 7.9 17:28:43 10° S 17:32:13 44° W 17:35:48 10° NNW visible
